Wind_Speed
5 5 5 5 5 7 7 4 3 3 3 3 2 1 1 2 2 3 4 5 6 7 8 9 8 7 7 7 7 7 7 7 7 8 8 8 8 8 8 8 8 8 8 8 8 8 7 7 7
4 4 5 4 5 6 3 1 2 3 4 2 2 2 2 0 1 2 3 3 4 5 6 8 7 7 7 7 6 6 6 7 7 7 7 7 7 7 7 7 7 7 7 6 7 6 6 6 6
4 4 5 4 6 5 2 3 4 4 4 3 3 3 2 1 1 2 2 3 4 4 6 7 7 6 6 5 5 5 5 5 6 6 7 7 7 6 6 6 6 6 6 6 5 5 5 4 4
4 4 4 5 5 2 4 4 5 4 4 4 4 3 2 2 1 1 2 3 4 4 5 6 7 6 5 5 4 4 4 5 5 6 7 7 6 6 6 6 5 5 5 5 4 4 3 3 3
4 4 3 5 5 2 5 5 5 3 3 4 4 3 2 3 2 2 2 3 4 5 6 6 6 5 5 4 4 4 4 4 5 5 6 6 6 6 5 5 5 4 4 4 3 3 3 2 2
6 4 4 3 1 5 6 6 5 5 4 4 5 3 3 3 2 2 3 3 3 4 5 5 6 5 5 5 4 4 4 4 4 5 5 5 5 5 5 4 4 3 3 3 2 2 2 2 2
6 4 3 1 3 7 8 6 5 6 5 5 5 5 4 4 4 3 4 4 4 5 5 5 5 5 5 5 5 5 5 5 5 5 4 4 5 5 4 4 3 3 2 2 2 1 1 1 0
6 5 4 3 4 7 9 7 7 7 6 6 7 6 5 5 4 4 4 4 4 5 6 6 6 6 6 5 5 6 6 5 5 5 4 4 4 4 4 4 3 3 2 2 1 0 0 1 1
8 7 6 3 6 8 9 8 7 7 7 7 7 7 5 5 5 4 5 5 5 6 7 7 7 7 7 6 6 6 6 6 5 5 4 4 4 5 5 4 4 3 2 2 2 1 1 2 2
10 9 7 7 9 9 10 9 8 8 8 7 7 7 6 6 5 5 6 6 6 6 7 7 7 7 7 7 7 7 6 6 6 5 5 5 5 5 5 5 4 4 2 2 2 2 2 2 2
12 11 9 10 11 10 10 10 8 8 8 7 7 7 7 6 6 6 7 7 7 8 8 8 8 8 8 8 8 8 7 7 6 6 6 6 6 6 6 6 6 5 4 3 3 2 2 3 3
13 13 13 14 13 12 11 10 9 10 9 7 6 7 7 7 6 6 7 8 9 9 9 9 9 8 8 8 8 8 8 7 7 7 7 6 6 7 6 7 6 5 5 4 3 3 3 3 3
15 14 14 14 13 12 12 10 9 11 10 11 8 8 8 8 7 7 8 9 9 9 9 10 9 9 9 8 9 9 8 8 8 8 8 8 7 7 7 7 7 6 5 5 4 4 4 4 3
16 15 15 15 15 13 12 11 11 11 11 11 10 10 10 9 8 7 8 9 9 10 10 10 10 10 10 10 10 10 10 10 9 9 9 8 8 8 8 7 7 6 6 6 5 5 5 5 4
18 17 17 16 15 14 12 12 12 12 11 11 11 11 10 10 9 8 9 9 9 9 9 10 10 11 11 11 11 11 10 10 10 10 9 9 8 8 8 8 8 7 7 8 7 6 5 5 5
18 17 16 15 15 14 13 12 13 12 12 12 12 11 11 11 10 9 9 10 10 10 10 11 11 12 12 12 12 12 11 11 11 10 10 10 9 9 9 9 8 8 8 8 8 7 6 6 5
17 16 15 14 15 14 14 14 14 13 12 12 12 12 11 11 11 10 10 10 11 11 12 11 12 12 13 13 12 12 12 12 12 12 12 12 11 11 10 10 10 9 9 9 8 7 7 7 6
15 14 14 14 14 15 15 14 15 14 12 12 13 13 12 11 11 11 10 11 11 11 11 12 12 12 13 13 14 14 13 13 14 13 13 13 13 12 11 11 11 10 9 9 9 9 8 8 8
16 15 15 15 16 17 16 14 15 12 12 13 14 14 12 12 12 12 11 11 11 11 11 11 12 13 14 14 14 14 14 14 14 14 14 14 14 13 12 11 11 11 10 10 10 9 9 9 8
21 19 17 16 18 18 16 15 16 14 13 14 15 14 14 13 13 13 13 12 11 11 12 12 12 13 13 14 14 14 14 14 14 14 14 14 14 13 13 12 12 12 11 11 10 10 10 9 8
22 20 18 18 18 19 18 16 18 17 15 14 14 15 15 14 13 13 12 12 12 11 11 12 12 13 13 13 12 13 14 14 14 14 13 13 13 13 13 13 13 12 12 11 11 10 10 10 9
22 20 20 20 20 18 17 16 16 16 16 15 15 16 15 14 13 13 13 13 12 12 12 12 12 12 12 11 11 12 13 14 14 13 12 12 13 13 13 13 13 13 11 11 10 10 10 10 10
22 21 22 21 20 19 17 16 17 18 18 16 15 15 15 15 14 14 13 13 13 12 12 12 12 12 12 12 12 12 13 13 12 12 12 12 12 12 12 13 13 12 11 11 10 10 10 10 10
23 23 23 23 21 22 19 16 18 19 19 16 14 14 16 16 16 15 13 12 12 13 13 12 13 13 12 12 13 13 13 12 12 11 11 11 12 12 11 11 11 12 11 11 11 10 10 10 10
26 25 23 22 23 21 18 18 19 18 18 17 15 16 17 17 17 16 14 12 12 12 13 13 12 12 12 13 13 13 13 13 12 12 12 11 12 12 11 10 11 12 11 11 11 11 11 11 10
27 26 23 20 18 18 19 21 20 19 19 18 18 18 18 17 16 16 15 13 12 12 12 12 12 13 13 13 13 13 13 14 13 12 12 11 12 12 12 11 12 12 12 11 11 11 11 11 11
27 26 22 19 17 17 17 18 18 20 20 19 18 18 19 18 17 16 15 13 13 12 12 12 12 13 14 13 13 14 14 14 14 13 13 12 12 12 12 11 11 12 12 12 12 11 11 11 11
26 25 26 25 22 19 18 18 18 19 18 17 18 18 19 18 16 16 15 14 14 13 13 13 12 13 13 14 14 13 13 14 14 14 14 13 12 12 12 12 12 12 12 12 11 11 11 11 11
28 28 28 25 22 18 17 18 18 18 15 16 18 18 17 17 17 16 16 16 15 14 14 14 14 14 14 14 14 14 13 14 14 13 13 14 13 12 12 12 12 12 13 13 12 12 12 12 11
27 28 28 28 25 22 21 19 18 18 15 15 17 18 18 17 17 16 16 14 15 15 15 15 14 14 14 14 14 14 13 13 13 13 14 14 13 12 12 12 13 13 14 14 14 13 14 13 13
Wind_Direction
83 85 88 96 103 70 78 56 347 337 338 359 358 336 358 73 96 112 117 122 124 129 130 130 129 130 132 134 132 130 129 130 129 131 128 126 122 118 115 112 109 111 108 106 106 105 97 95 93
93 92 96 99 83 67 70 4 323 324 337 333 309 313 339 358 123 118 136 138 135 138 138 135 133 134 136 135 134 133 133 134 135 139 138 137 132 127 121 115 112 111 107 106 104 97 91 91 89
115 114 102 87 51 36 23 322 319 325 335 328 326 331 328 303 168 153 160 160 152 147 149 144 141 140 145 144 140 137 140 140 140 145 144 147 141 135 131 123 121 113 108 104 102 95 85 82 84
143 151 127 98 66 12 315 309 306 328 333 331 334 341 324 311 273 203 183 173 172 163 159 153 154 152 154 157 155 151 147 152 149 151 150 153 150 146 142 135 125 117 111 106 103 96 83 75 76
172 166 120 87 68 328 287 293 295 293 303 316 324 335 321 320 289 227 197 185 173 172 168 162 161 169 171 170 173 172 167 166 164 163 157 155 156 154 152 144 133 130 123 117 111 101 88 71 77
182 168 125 81 167 271 285 284 284 287 297 306 314 322 321 316 301 247 225 207 185 179 178 172 174 180 187 192 192 192 190 187 185 178 167 165 167 165 161 155 148 141 135 131 121 106 87 68 72
198 185 144 173 229 269 282 277 262 265 272 290 306 310 315 310 299 268 242 230 210 201 197 186 189 194 199 204 206 208 207 207 207 203 191 186 183 177 171 167 161 156 154 147 128 99 66 10 4
202 210 180 212 239 261 278 277 268 261 266 284 292 298 308 308 295 276 251 238 225 217 212 208 208 210 213 216 219 220 220 221 222 218 211 205 200 197 189 183 180 176 182 183 172 204 346 341 329
210 208 188 205 237 254 268 272 273 277 273 280 291 299 304 303 293 272 251 233 228 224 221 220 221 221 222 226 229 226 231 234 230 227 225 223 215 210 205 199 199 199 199 206 220 237 290 309 304
213 210 192 220 228 246 259 267 271 277 281 281 287 295 297 301 294 275 258 242 235 232 228 229 228 230 231 234 236 233 239 241 239 235 234 233 231 224 218 212 216 215 215 227 240 248 282 294 296
214 215 205 225 231 238 256 266 274 277 270 273 284 292 293 295 288 276 262 252 246 241 236 231 232 236 238 239 239 239 245 245 247 248 245 247 242 234 230 227 225 228 230 241 248 253 262 277 282
219 220 221 226 233 239 246 257 270 275 273 270 280 290 292 294 284 274 263 256 255 248 242 236 233 236 239 243 240 241 244 249 252 255 255 262 257 248 242 231 236 241 241 251 256 252 251 259 272
223 224 227 228 233 239 244 250 257 269 279 287 287 286 289 290 284 273 268 266 261 252 247 240 236 239 241 245 243 244 247 250 254 258 258 263 263 256 258 255 244 241 244 251 249 254 257 269 281
224 226 231 232 236 241 245 251 256 267 272 278 286 285 285 284 281 274 270 271 266 263 253 247 244 245 246 250 249 247 249 255 257 259 261 262 261 256 258 265 252 245 250 251 249 256 261 268 275
223 226 230 234 237 241 245 249 255 265 272 275 279 283 282 281 278 276 274 274 270 268 263 255 251 250 249 250 250 250 252 257 259 261 263 260 258 257 256 263 260 254 256 253 251 254 263 268 272
224 227 229 235 239 244 244 246 251 256 267 271 275 279 280 280 278 278 277 274 273 269 265 259 254 253 252 252 250 251 253 256 258 261 263 260 259 260 259 260 261 256 257 258 255 259 266 266 268
222 226 229 232 242 246 246 243 249 252 261 271 274 278 279 280 278 279 278 275 275 272 263 261 256 255 254 253 251 254 256 255 255 258 260 260 260 260 258 255 255 256 257 259 258 260 264 265 266
221 228 232 234 242 246 247 248 252 256 261 270 271 272 275 280 280 281 279 275 274 272 264 261 259 257 257 256 254 253 257 257 255 257 258 259 256 255 255 253 251 254 258 261 261 259 263 265 265
213 220 226 231 236 244 248 248 251 256 262 269 270 274 276 278 279 281 280 276 274 270 264 262 260 261 259 259 257 255 258 258 257 256 258 260 256 254 254 250 248 253 257 262 262 260 263 264 264
213 215 218 227 232 241 245 245 248 252 261 266 271 274 280 275 278 280 281 277 275 268 264 264 264 263 261 262 258 258 259 260 261 260 258 257 253 251 252 249 249 253 256 260 260 260 260 261 264
216 213 212 223 232 241 247 244 245 245 254 265 270 274 277 279 278 279 279 275 274 272 265 266 267 266 264 263 257 256 258 259 263 261 259 257 251 250 250 250 252 253 257 261 262 261 259 260 263
215 213 216 221 228 239 245 246 252 255 251 258 267 274 277 278 276 278 279 273 269 267 265 265 268 269 267 261 262 258 256 260 261 260 260 258 255 251 252 251 251 251 253 256 260 262 262 264 263
213 213 219 222 226 232 235 241 253 256 250 255 267 271 274 275 276 275 276 273 269 265 263 264 266 268 265 262 263 258 257 261 260 256 255 257 253 249 250 251 250 249 249 252 258 261 265 269 268
211 213 218 221 226 234 233 233 247 257 256 252 259 267 271 272 274 273 271 272 269 264 262 263 261 263 263 262 261 257 256 257 260 261 256 256 252 248 250 251 247 249 250 251 255 261 267 269 268
211 212 216 221 227 234 234 233 243 254 260 263 262 262 265 267 272 273 274 273 270 265 263 262 258 260 262 263 259 255 255 255 257 260 258 256 255 255 254 253 251 251 252 252 254 261 267 270 267
214 214 214 220 232 235 234 233 237 249 259 262 263 263 266 267 271 272 271 272 272 268 265 261 258 260 262 263 258 255 255 255 257 258 258 256 255 257 260 254 254 254 253 254 256 262 268 270 268
214 213 210 219 226 240 237 234 233 246 254 257 262 263 263 265 269 270 270 269 270 268 264 260 260 262 263 262 259 255 257 258 258 257 258 257 256 256 256 251 254 255 253 254 259 264 267 270 268
214 211 207 216 222 234 241 236 235 240 247 256 261 260 264 264 265 265 263 263 266 267 265 261 262 265 264 262 258 256 256 257 257 257 257 256 258 257 252 252 256 256 255 256 258 264 267 269 268
212 211 211 216 222 232 241 235 241 243 245 256 261 262 264 264 263 263 262 259 261 265 265 262 262 264 264 259 256 255 257 259 257 256 257 256 257 256 252 253 255 257 258 255 255 262 265 268 268
218 216 214 216 220 225 239 248 250 249 244 251 258 262 262 262 262 262 264 264 261 261 261 260 260 261 262 259 256 254 256 257 254 255 255 256 258 257 254 253 257 259 261 256 253 259 264 266 265
Height
5880 5880 5880 5880 5880 5878 5879 5881 5882 5880 5880 5880 5880 5879 5878 5878 5879 5880 5879 5878 5879 5879 5879 5880 5881 5882 5882 5883 5883 5884 5884 5885 5885 5885 5886 5886 5887 5887 5888 5888 5889 5890 5891 5891 5892 5892 5892 5893 5893
5880 5880 5881 5880 5878 5878 5879 5881 5881 5881 5881 5880 5880 5880 5879 5879 5879 5879 5879 5879 5880 5880 5880 5881 5882 5883 5883 5884 5885 5885 5885 5886 5886 5886 5887 5887 5888 5889 5889 5890 5890 5891 5892 5892 5893 5893 5894 5894 5894
5880 5881 5881 5881 5878 5879 5880 5881 5881 5881 5881 5881 5880 5880 5880 5880 5880 5880 5880 5880 5880 5881 5881 5882 5883 5884 5885 5885 5886 5886 5887 5887 5887 5887 5888 5888 5889 5889 5890 5891 5891 5892 5893 5893 5894 5894 5895 5895 5895
5881 5881 5881 5881 5880 5882 5882 5882 5882 5882 5881 5881 5881 5881 5880 5881 5881 5881 5880 5881 5881 5882 5882 5883 5884 5885 5886 5886 5887 5887 5888 5888 5888 5888 5888 5889 5890 5890 5891 5892 5892 5893 5894 5894 5895 5895 5895 5896 5896
5880 5881 5881 5880 5881 5884 5884 5883 5883 5882 5881 5881 5881 5881 5881 5881 5881 5881 5881 5881 5882 5882 5883 5884 5885 5886 5887 5887 5888 5888 5889 5889 5889 5889 5889 5890 5890 5891 5892 5892 5893 5894 5895 5895 5896 5896 5896 5896 5896
5880 5880 5881 5881 5884 5885 5885 5884 5883 5882 5881 5881 5881 5881 5881 5881 5881 5881 5881 5881 5882 5883 5884 5884 5885 5886 5887 5888 5888 5889 5889 5890 5890 5890 5891 5891 5891 5892 5892 5893 5894 5895 5895 5896 5896 5896 5897 5897 5897
5880 5880 5879 5881 5884 5885 5885 5884 5883 5883 5882 5882 5882 5881 5881 5881 5882 5881 5881 5882 5883 5884 5884 5885 5886 5887 5888 5888 5889 5890 5890 5890 5890 5891 5891 5891 5892 5892 5893 5894 5894 5895 5896 5896 5897 5897 5897 5897 5897
5879 5880 5880 5882 5884 5885 5884 5883 5882 5882 5882 5882 5882 5882 5882 5882 5881 5881 5881 5882 5883 5883 5884 5885 5886 5887 5887 5888 5889 5890 5890 5890 5891 5891 5891 5892 5892 5893 5893 5894 5895 5895 5896 5897 5897 5897 5897 5898 5898
5878 5880 5881 5882 5884 5885 5884 5883 5882 5882 5882 5882 5881 5881 5882 5881 5881 5881 5881 5882 5883 5883 5884 5885 5886 5886 5887 5888 5889 5890 5890 5890 5891 5891 5892 5892 5893 5893 5893 5894 5895 5896 5896 5897 5897 5897 5898 5898 5898
5877 5879 5880 5882 5882 5883 5883 5882 5882 5882 5881 5881 5881 5881 5881 5881 5880 5881 5881 5882 5882 5883 5884 5885 5885 5886 5887 5888 5889 5889 5890 5890 5891 5892 5892 5892 5893 5893 5894 5894 5895 5896 5896 5897 5897 5897 5898 5898 5898
5876 5877 5878 5880 5881 5881 5882 5881 5881 5881 5880 5879 5879 5880 5880 5880 5880 5880 5880 5881 5881 5882 5883 5883 5885 5885 5887 5887 5888 5889 5890 5891 5891 5892 5892 5893 5893 5893 5894 5894 5895 5896 5896 5897 5897 5898 5898 5898 5898
5874 5875 5876 5879 5879 5880 5880 5880 5881 5879 5877 5875 5877 5879 5879 5879 5879 5879 5879 5880 5880 5881 5881 5882 5884 5885 5886 5887 5888 5889 5890 5890 5891 5892 5892 5892 5893 5893 5894 5894 5895 5895 5896 5896 5897 5897 5897 5898 5898
5871 5873 5874 5876 5876 5878 5878 5878 5879 5879 5878 5876 5876 5878 5878 5878 5878 5878 5878 5879 5879 5880 5881 5882 5883 5884 5885 5886 5887 5888 5889 5890 5890 5891 5892 5892 5892 5893 5893 5894 5894 5895 5896 5896 5897 5897 5897 5897 5897
5868 5870 5871 5873 5875 5876 5877 5877 5878 5878 5877 5877 5877 5877 5877 5877 5877 5877 5878 5878 5878 5879 5879 5880 5882 5883 5884 5885 5886 5887 5888 5889 5890 5890 5891 5891 5891 5892 5893 5893 5894 5894 5895 5896 5896 5896 5897 5897 5897
5865 5867 5869 5871 5872 5874 5875 5876 5876 5876 5876 5876 5876 5876 5876 5876 5876 5876 5876 5876 5877 5878 5879 5879 5880 5881 5882 5883 5885 5886 5887 5888 5889 5889 5890 5890 5891 5891 5892 5893 5893 5894 5894 5895 5895 5896 5896 5896 5897
5862 5864 5867 5869 5870 5872 5874 5875 5874 5874 5874 5875 5875 5875 5875 5874 5874 5875 5875 5875 5876 5876 5877 5878 5879 5880 5881 5882 5882 5884 5885 5887 5888 5888 5888 5889 5890 5890 5891 5891 5892 5893 5893 5894 5895 5895 5895 5896 5896
5859 5861 5864 5867 5868 5870 5871 5872 5872 5871 5872 5873 5873 5873 5873 5873 5873 5873 5873 5873 5874 5874 5875 5875 5877 5878 5879 5880 5881 5883 5884 5885 5886 5886 5887 5887 5888 5888 5889 5890 5891 5892 5892 5893 5894 5894 5894 5895 5895
5857 5860 5863 5865 5867 5868 5869 5870 5869 5869 5870 5871 5871 5871 5871 5871 5871 5871 5871 5871 5871 5872 5872 5873 5875 5876 5877 5878 5879 5880 5882 5883 5884 5884 5885 5886 5886 5887 5887 5888 5889 5890 5891 5892 5892 5893 5893 5894 5894
5854 5858 5861 5864 5865 5866 5867 5868 5867 5867 5868 5869 5869 5869 5868 5869 5869 5869 5869 5869 5869 5870 5870 5871 5873 5874 5875 5876 5877 5878 5879 5880 5881 5882 5883 5884 5884 5885 5886 5887 5888 5889 5890 5890 5891 5892 5892 5892 5893
5850 5854 5858 5861 5863 5863 5864 5866 5866 5865 5866 5867 5867 5867 5866 5866 5867 5867 5867 5867 5867 5867 5869 5869 5870 5871 5872 5873 5874 5876 5877 5878 5879 5880 5880 5881 5882 5883 5884 5885 5886 5887 5888 5889 5889 5890 5891 5891 5891
5846 5850 5855 5859 5860 5860 5862 5863 5863 5862 5864 5865 5865 5865 5865 5864 5865 5865 5865 5865 5865 5866 5866 5867 5868 5869 5870 5871 5872 5873 5874 5875 5876 5877 5877 5878 5879 5880 5882 5883 5884 5885 5886 5887 5888 5888 5889 5889 5890
5843 5848 5852 5854 5857 5857 5860 5860 5861 5861 5862 5862 5863 5863 5863 5862 5862 5862 5862 5863 5863 5864 5864 5865 5866 5867 5867 5868 5869 5870 5872 5873 5874 5874 5875 5876 5877 5878 5879 5881 5882 5883 5884 5885 5886 5887 5887 5887 5888
5840 5845 5848 5850 5852 5854 5856 5858 5858 5857 5857 5859 5860 5860 5860 5860 5860 5860 5860 5860 5861 5861 5862 5863 5864 5864 5865 5866 5867 5868 5869 5870 5871 5872 5873 5873 5874 5875 5877 5878 5879 5880 5882 5883 5884 5884 5885 5885 5886
5837 5841 5843 5845 5848 5850 5852 5854 5855 5854 5854 5855 5857 5857 5857 5857 5858 5857 5857 5858 5858 5859 5860 5860 5861 5862 5862 5863 5864 5865 5866 5867 5869 5869 5870 5871 5871 5873 5874 5875 5877 5878 5880 5881 5881 5882 5883 5883 5884
5832 5836 5839 5842 5844 5846 5850 5851 5852 5851 5851 5852 5853 5854 5855 5855 5854 5854 5854 5855 5856 5856 5857 5858 5858 5859 5860 5860 5861 5862 5864 5865 5866 5867 5868 5869 5870 5871 5872 5873 5875 5876 5877 5878 5879 5880 5880 5881 5881
5827 5832 5837 5840 5842 5844 5845 5846 5849 5848 5848 5849 5850 5851 5851 5851 5852 5852 5852 5853 5853 5854 5854 5855 5856 5856 5857 5858 5859 5860 5861 5862 5864 5865 5866 5866 5867 5868 5870 5871 5873 5874 5875 5876 5877 5877 5878 5878 5879
5823 5827 5834 5837 5838 5840 5840 5842 5844 5845 5846 5847 5848 5848 5848 5849 5849 5850 5850 5850 5851 5851 5852 5852 5853 5854 5855 5855 5856 5857 5859 5860 5861 5862 5863 5864 5865 5866 5867 5869 5870 5871 5872 5873 5874 5875 5875 5876 5876
5820 5825 5829 5831 5833 5836 5837 5837 5837 5839 5841 5843 5844 5845 5845 5845 5846 5847 5847 5848 5848 5848 5849 5850 5851 5851 5852 5853 5853 5855 5856 5857 5858 5859 5860 5861 5862 5863 5865 5866 5867 5868 5869 5870 5871 5872 5873 5873 5874
5816 5820 5824 5828 5831 5833 5832 5833 5833 5834 5837 5839 5840 5840 5841 5841 5842 5843 5844 5845 5845 5846 5846 5847 5848 5848 5849 5850 5851 5852 5853 5854 5855 5856 5857 5858 5859 5860 5862 5863 5864 5865 5866 5867 5868 5869 5870 5870 5871
5812 5815 5820 5823 5826 5828 5829 5831 5829 5829 5832 5834 5836 5837 5837 5838 5838 5840 5841 5841 5841 5841 5842 5843 5844 5845 5846 5847 5848 5849 5850 5851 5852 5853 5854 5856 5856 5857 5859 5860 5861 5862 5863 5863 5864 5865 5866 5867 5867